Location: Ferintosh
(52.7647°N, 112.9692°W)
Time: 14:15:26
(UTC+00:00)

Transit 2A - Pass Details

Date: 26 May 2024
Orbit: 593 x 959 km, 66.7° (Epoch: 14 June)

Event Time Altitude Azimuth Distance (km) Brightness Sun altitude
Rises 12:46:11 0° 320° (NW) 3,343 9.1 10.6°
Reaches altitude 10° 12:48:33 10° 323° (NW) 2,462 8.5 10.9°
Maximum altitude 12:54:17 66° 46° (NE) 977 7.2 11.8°
Drops below altitude 10° 13:00:27 10° 128° (SE) 2,647 9.3 12.6°
Sets 13:03:05 0° 131° (SE) 3,612 9.9 13.0°
